This demonstration page uses our WeatherBlox Daily Observations layout. Learn more.

Left ArrowRight Arrow

36.19886, -115.1175

Hourly Observations for February 13, 2021

Temp ( °F °C ) Dew Point ( °F °C ) Humidity (%) Winds ( mph kmh ) Pressure ( in mb ) Visibility ( mi km ) Precip ( " mm )
12:53 am 00:53 Clear 53 11.7 34 1.1 48 48 SSW 3 6 29.77 1008 10 16 N/A
1:53 am 01:53 Clear 52 11.1 33 0.6 49 49 N 7 11 29.75 1007 10 16 N/A
2:53 am 02:53 Clear 53 11.7 34 1.1 48 48 SW 3 6 29.74 1007 10 16 N/A
3:53 am 03:53 Clear 52 11.1 33 0.6 49 49 NNW 7 11 29.74 1007 10 16 N/A
4:53 am 04:53 Cloudy 53 11.7 33 0.6 47 47 NW 3 6 29.74 1007 10 16 N/A
5:53 am 05:53 Clear 53 11.7 34 1.1 48 48 WNW 6 9 29.72 1006 10 16 N/A
6:53 am 06:53 Sunny 51 10.6 34 1.1 52 52 NE 6 9 29.68 1005 10 16 N/A
7:53 am 07:53 Sunny 58 14.4 23 -5 26 26 SE 8 13 29.62 1003 10 16 N/A
8:53 am 08:53 Sunny 59 15 27 -2.8 29 29 WNW 8 13 29.62 1003 10 16 N/A
9:25 am 09:25 Sunny 61 16.1 26 -3.3 26 26 N 17 28 29.57 1002 10 16 N/A
9:53 am 09:53 Partly Cloudy 60 15.6 30 -1.1 32 32 NNW 12 19 29.65 1004 10 16 N/A
10:53 am 10:53 Mostly Sunny 64 17.8 31 -0.6 29 29 WNW 12 19 29.62 1003 10 16 N/A
11:53 am 11:53 Sunny 66 18.9 30 -1.1 26 26 NW 13 20 29.59 1002 10 16 N/A
12:53 pm 12:53 Sunny 68 20 26 -3.3 21 21 NNW 20 31 29.53 1000 10 16 N/A
1:36 pm 13:36 Partly Cloudy with Light Rain 64 17.8 28 -2.2 26 26 NW 55 89 29.48 998 2 3 0.00 0.00
1:43 pm 13:43 Partly Cloudy with Light Rain 53 11.7 36 2.2 52 52 NNW 40 65 29.57 1001 1 2 0.01 0.25
1:46 pm 13:46 Mostly Cloudy with Rain 52 11.1 36 2.2 55 55 NNW 37 59 29.58 1002 3 4 0.02 0.51
1:53 pm 13:53 Mostly Cloudy with Light Rain 55 12.8 33 0.6 44 44 NNW 38 61 29.62 1003 8 13 0.02 0.51
2:53 pm 14:53 Partly Cloudy 57 13.9 34 1.1 42 42 WNW 8 13 29.60 1002 10 16 0.00 0.00
3:53 pm 15:53 Sunny 60 15.6 29 -1.7 31 31 WNW 30 48 29.56 1001 10 16 0.00 0.00
4:53 pm 16:53 Sunny 60 15.6 23 -5 24 24 N 10 17 29.57 1001 10 16 0.00 0.00
5:53 pm 17:53 Clear 59 15 19 -7.2 21 21 NW 17 28 29.61 1003 10 16 N/A
6:53 pm 18:53 Mostly Clear 58 14.4 19 -7.2 22 22 NW 14 22 29.64 1004 10 16 N/A
7:53 pm 19:53 Clear 57 13.9 20 -6.7 24 24 NW 28 44 29.62 1003 10 16 N/A
8:53 pm 20:53 Clear 55 12.8 24 -4.4 30 30 NW 23 37 29.66 1004 10 16 0.00 0.00
9:53 pm 21:53 Clear with Light Rain 54 12.2 22 -5.6 29 29 NW 25 41 29.70 1006 10 16 0.00 0.00
10:53 pm 22:53 Clear 53 11.7 19 -7.2 26 26 NNW 24 39 29.70 1006 10 16 0.00 0.00
11:53 pm 23:53 Clear 52 11.1 14 -10 22 22 NNW 16 26 29.72 1007 10 16 N/A

Powered by AerisWeather